Flag for U.S.A. Weather past 2 weeks in Freehold, New Jersey, U.S.A.

Now
36 °F

Clear.


Feels Like: 36 °F
Forecast: 33 / 62 °F
Wind: No wind

Location: Belmar-Farmdale

Current Time: Apr 2, 2015 at 2:59:12 AM

Latest Report: Apr 2, 2015 at 2:35 AM


Visibility: 10 mi

Pressure: 30.24 "Hg

Humidity: 70%

Dew point: 27 °F

Location of FreeholdLocation

Historic Weather in Freehold — Graph

°F

Freehold temperature yesterday

Maximum temperature yesterday: 52 °F (at 3:35 PM)
Minimum temperature yesterday: 30 °F (at 6:15 AM)
Average temperature yesterday: 41 °F

Past Weeks' High & Low Weather Summary

 TemperatureHumidityPressure
High66 °F (Mar 26, 3:35 PM)88% (Mar 26, 11:35 AM)30.42 "Hg (Mar 26, 11:35 AM)
Low25 °F (Mar 19, 4:35 AM)20% (Mar 19, 2:55 PM)29.59 "Hg (Mar 26, 9:15 PM)
Average38 °F52%30.06 "Hg
* Reported Mar 18 1:15 AM — Apr 2 1:55 AM, Freehold, Weather by CustomWeather, © 2015

Note: Actual official high and low records may vary slightly from our data, if they occured in-between our weather recording intervals... More about our weather records

Advertising

Freehold weather history for previous 24 hours

 ConditionsComfort  
Time TempWeatherWind HumidityBarometerVisibility
1:55 AM
Thu, Apr 2
36 °FClear.No wind70%30.23 "Hg10 mi
1:35 AM36 °FClear.3 mph70%30.23 "Hg10 mi
1:15 AM36 °FClear.No wind70%30.24 "Hg10 mi
12:55 AM36 °FClear.3 mph65%30.22 "Hg10 mi
12:35 AM36 °FClear.6 mph70%30.22 "Hg10 mi
12:15 AM37 °FClear.5 mph65%30.22 "Hg10 mi
11:55 PM
Wed, Apr 1
37 °FClear.8 mph65%30.23 "Hg10 mi
11:35 PM37 °FClear.6 mph70%30.22 "Hg10 mi
10:55 PM37 °FClear.3 mph65%30.21 "Hg10 mi
10:35 PM37 °FClear.No wind60%30.21 "Hg10 mi
10:15 PM37 °FClear.No wind65%30.22 "Hg10 mi
9:55 PM37 °FClear.3 mph60%30.21 "Hg10 mi
9:35 PM41 °FClear.5 mph53%30.20 "Hg10 mi
9:15 PM41 °FClear.5 mph57%30.20 "Hg10 mi
8:55 PM41 °FClear.6 mph53%30.19 "Hg10 mi
8:35 PM45 °FClear.5 mph39%30.18 "Hg10 mi
8:15 PM46 °FSunny.6 mph34%30.18 "Hg10 mi
7:55 PM46 °FSunny.3 mph37%30.17 "Hg10 mi
7:35 PM48 °FSunny.7 mph34%30.16 "Hg10 mi
7:15 PM48 °FSunny.9 mph34%30.15 "Hg10 mi
6:55 PM50 °FSunny.12 mph30%30.14 "Hg10 mi
6:35 PM52 °FSunny.8 mph30%30.14 "Hg10 mi
6:15 PM52 °FSunny.13 mph30%30.13 "Hg10 mi
5:55 PM52 °FSunny.13 mph30%30.12 "Hg10 mi
5:35 PM52 °FSunny.18 mph30%30.11 "Hg10 mi
5:15 PM52 °FSunny.15 mph35%30.09 "Hg10 mi
4:55 PM52 °FSunny.14 mph35%30.09 "Hg10 mi
4:35 PM52 °FSunny.13 mph32%30.08 "Hg10 mi
4:15 PM52 °FSunny.14 mph32%30.08 "Hg10 mi
3:55 PM52 °FSunny.16 mph32%30.08 "Hg10 mi
3:35 PM52 °FSunny.13 mph30%30.08 "Hg10 mi
3:15 PM50 °FSunny.10 mph30%30.08 "Hg10 mi
2:55 PM50 °FSunny.14 mph30%30.09 "Hg10 mi
2:35 PM48 °FSunny.20 mph32%30.08 "Hg10 mi
2:15 PM48 °FSunny.13 mph32%30.09 "Hg10 mi
1:55 PM48 °FSunny.14 mph32%30.09 "Hg10 mi
1:35 PM46 °FSunny.16 mph32%30.09 "Hg10 mi
1:15 PM46 °FSunny.13 mph34%30.09 "Hg10 mi
12:55 PM46 °FSunny.14 mph32%30.08 "Hg10 mi
12:35 PM46 °FSunny.8 mph32%30.09 "Hg10 mi
12:15 PM46 °FSunny.9 mph32%30.09 "Hg10 mi
11:55 AM45 °FSunny.6 mph31%30.08 "Hg10 mi
11:35 AM45 °FSunny.8 mph31%30.08 "Hg10 mi
11:15 AM43 °FSunny.14 mph34%30.08 "Hg10 mi
10:55 AM43 °FSunny.9 mph36%30.09 "Hg10 mi
10:35 AM43 °FSunny.9 mph36%30.08 "Hg10 mi
10:15 AM41 °FSunny.12 mph39%30.08 "Hg10 mi
9:55 AM39 °FSunny.14 mph45%30.07 "Hg10 mi
9:35 AM37 °FSunny.12 mph48%30.06 "Hg10 mi
9:15 AM37 °FSunny.8 mph48%30.05 "Hg10 mi
8:55 AM36 °FSunny.7 mph52%30.04 "Hg10 mi
8:35 AM34 °FSunny.6 mph60%30.03 "Hg10 mi
8:15 AM34 °FSunny.8 mph56%30.03 "Hg10 mi
7:55 AM34 °FSunny.8 mph60%30.02 "Hg10 mi
7:35 AM34 °FClear.5 mph56%30.01 "Hg10 mi
7:15 AM32 °FClear.7 mph60%29.99 "Hg10 mi
6:55 AM32 °FClear.9 mph60%29.97 "Hg10 mi
6:35 AM32 °FClear.6 mph60%29.95 "Hg10 mi
6:15 AM30 °FClear.9 mph64%29.93 "Hg10 mi
5:55 AM32 °FClear.10 mph64%29.93 "Hg10 mi
5:35 AM32 °FClear.10 mph64%29.92 "Hg10 mi
5:15 AM32 °FClear.12 mph64%29.90 "Hg10 mi
4:55 AM32 °FClear.9 mph64%29.90 "Hg10 mi
4:35 AM32 °FClear.6 mph69%29.90 "Hg10 mi
4:15 AM32 °FClear.8 mph75%29.89 "Hg10 mi
3:55 AM34 °FClear.8 mph70%29.88 "Hg10 mi
3:35 AM34 °FClear.10 mph70%29.87 "Hg10 mi
2:55 AM34 °FClear.12 mph75%29.85 "Hg10 mi
2:35 AM34 °FClear.10 mph75%29.85 "Hg10 mi
2:15 AM34 °FClear.12 mph81%29.84 "Hg10 mi
Weather by CustomWeather, © 2015

See weather overviewHow to use our weather pages